OneWeb SL0600

operational
NORAD ID: 54664 Int'l Des: 2022-166 Owner: ONEWEBN Country: UK Constellation: oneweb
LEOCIRCULARPOLARONEWEB_TYPE

About OneWeb SL0600

Description loading...

Live Position

Loading 3D Globe...

Upcoming Passes

Altitude History

Altitude vs Time

uPlot chart will show altitude changes over time

Two-Line Element Set

1 54664U 22166Y 26062.06739400 .00000140 00000-0 30696-3 0 9999
2 54664 87.9164 265.1449 0001389 96.8333 263.2959 13.21829199157493
Epoch: Mar 3, 2026 • Age: 29 hours

Current Status

Altitude 1187.5 km
Velocity 7.27 km/s
Sub-Earth Point 61.69°N, 29.1°E
Launch Date Dec 8, 2022
Age 3.2 years
Type internet

Technical Details

Classification Payload
Mass 148.00 kg
Dry Mass 140.00 kg
Total Mass 148.00 kg
Length 1.30 m
Diameter 1.00 m
Span 5.00 m
Shape Trapezoid+2 pan
Manufacturer ONEWUS
Bus Type ARROW
Phase Status In Orbit
Owner/State ONEWEBN/UK

Large Constellations

Loading constellations...